Flag for United Kingdom Weather past 2 weeks in Bolton, England, United Kingdom

Now
57 °F

Light rain. Passing clouds.


Feels Like: 55 °F
Forecast: 46 / 60 °F
Wind: 12 mph from Northwest

Location: Manchester Airport

Current Time: Aug 22, 2014 at 7:36:40 PM

Latest Report: Aug 22, 2014 at 6:50 PM


Visibility: N/A

Pressure: 29.89 "Hg

Humidity: 63%

Dew point: 45 °F

Location of BoltonLocation

Historic Weather in Bolton — Graph

°F

Bolton temperature yesterday

Maximum temperature yesterday: 59 °F (at 11:20 AM)
Minimum temperature yesterday: 46 °F (at 1:20 AM)
Average temperature yesterday: 54 °F

Past Weeks' High & Low Weather Summary

 TemperatureHumidityPressure
High72 °F (Aug 8, 12:50 PM)100% (Aug 9, 6:20 AM)30.15 "Hg (Aug 9, 6:20 AM)
Low45 °F (Aug 19, 11:50 PM)46% (Aug 9, 2:20 PM)29.27 "Hg (Aug 10, 2:20 PM)
Average57 °F78%29.78 "Hg
* Reported Aug 7 6:20 PM — Aug 22 6:20 PM, Bolton, Weather by CustomWeather, © 2014

Note: Actual official high and low records may vary slightly from our data, if they occured in-between our weather recording intervals... More about our weather records

Advertising

Bolton weather history for previous 24 hours

 ConditionsComfort  
Time TempWeatherWind HumidityBarometerVisibility
6:20 PM
Aug 22
57 °FPassing clouds.10 mph63%29.89 "HgN/A
5:50 PM59 °FScattered clouds.13 mph59%29.89 "HgN/A
5:20 PM57 °FPassing clouds.8 mph67%29.89 "HgN/A
4:50 PM57 °FPassing clouds.12 mph67%29.89 "HgN/A
4:20 PM59 °FPassing clouds.12 mph68%29.89 "HgN/A
3:50 PM61 °FPassing clouds.12 mph59%29.89 "HgN/A
3:20 PM59 °FPassing clouds.12 mph63%29.89 "HgN/A
2:50 PM59 °FPassing clouds.10 mph59%29.86 "HgN/A
2:20 PM59 °FPassing clouds.7 mph68%29.86 "HgN/A
1:50 PM57 °FRain showers. Passing clouds.12 mph67%29.86 "HgN/A
1:20 PM59 °FPassing clouds.12 mph59%29.86 "HgN/A
12:50 PM59 °FPassing clouds.12 mph63%29.86 "HgN/A
12:20 PM59 °FBroken clouds.8 mph63%29.86 "HgN/A
11:50 AM57 °FBroken clouds.6 mph77%29.83 "HgN/A
11:20 AM57 °FBroken clouds.6 mph67%29.83 "HgN/A
10:50 AM59 °FBroken clouds.5 mph77%29.83 "HgN/A
10:20 AM55 °FBroken clouds.3 mph82%29.83 "HgN/A
9:50 AM55 °FPartly sunny.5 mph88%29.83 "HgN/A
9:20 AM54 °FBroken clouds.2 mph94%29.80 "HgN/A
8:50 AM54 °FBroken clouds.No wind94%29.80 "HgN/A
8:20 AM52 °FScattered clouds.3 mph100%29.80 "HgN/A
7:50 AM52 °FPassing clouds.3 mph94%29.80 "HgN/A
7:20 AM52 °FPassing clouds.6 mph94%29.77 "HgN/A
6:50 AM52 °FPassing clouds.7 mph94%29.77 "HgN/A
6:20 AM50 °FMixture of precip. Passing clouds.6 mph100%29.77 "Hg6 mi
5:50 AM50 °FSleet. Fog.3 mph94%29.77 "Hg4 mi
5:20 AM50 °FPassing clouds.6 mph94%29.77 "HgN/A
4:50 AM50 °FPassing clouds.6 mph100%29.77 "HgN/A
4:20 AM50 °FPartly cloudy.6 mph100%29.77 "HgN/A
3:50 AM50 °FPartly cloudy.5 mph100%29.77 "Hg4 mi
3:20 AM50 °FPassing clouds.3 mph100%29.77 "HgN/A
2:50 AM52 °FPassing clouds.3 mph94%29.77 "HgN/A
2:20 AM52 °FPassing clouds.7 mph100%29.77 "HgN/A
1:50 AM54 °FLight rain. Partly cloudy.7 mph94%29.77 "HgN/A
1:20 AM54 °FRain. Passing clouds.7 mph94%29.77 "Hg5 mi
12:50 AM54 °FScattered showers. Partly cloudy.8 mph94%29.77 "HgN/A
12:20 AM54 °FScattered showers. Passing clouds.7 mph94%29.77 "HgN/A
11:50 PM
Aug 21
54 °FPassing clouds.8 mph88%29.77 "HgN/A
11:20 PM54 °FPassing clouds.10 mph88%29.77 "HgN/A
10:50 PM54 °FPassing clouds.13 mph88%29.77 "HgN/A
10:20 PM55 °FScattered showers. Passing clouds.12 mph82%29.77 "HgN/A
9:50 PM55 °FScattered showers. Passing clouds.10 mph82%29.77 "HgN/A
9:20 PM55 °FScattered clouds.9 mph82%29.77 "HgN/A
8:50 PM57 °FPartly sunny.12 mph77%29.77 "HgN/A
8:20 PM57 °FPartly sunny.16 mph72%29.77 "HgN/A
7:50 PM57 °FScattered clouds.13 mph77%29.77 "HgN/A
7:20 PM59 °FBroken clouds.15 mph68%29.77 "HgN/A
Weather by CustomWeather, © 2014

See weather overviewHow to use our weather pages